Location: Ripley
(48.3812°N, 115.4473°W)
Time: 21:42:28
(UTC+00:00)

O/OREOS (USA 219) - Pass Details

Date: 05 July 2022
Orbit: 621 x 646 km, 72.0° (Epoch: 22 May)

Event Time Altitude Azimuth Distance (km) Brightness Sun altitude
Rises 07:00:43 0° 334° (NNW) 2,967 ? -18.1°
Reaches altitude 10° 07:03:00 10° 335° (NNW) 2,054 ? -18.2°
Maximum altitude 07:07:38 81° 64° (ENE) 660 ? -18.3°
Enters shadow 07:09:30 36° 147° (SSE) 1,025 ? -18.4°
